Location: Béaulencourt
(50.0796°N, 2.8795°E)
Time: 07:23:58
(UTC+00:00)

Cosmos 2227 Rocket - Pass Details

Date: 20 January 2026
Orbit: 837 x 845 km, 71.0° (Epoch: 18 February)

Event Time Altitude Azimuth Distance (km) Brightness Sun altitude
Exits shadow 06:38:05 - 334° (NNW) 3,260 4.8 -9.4°
Reaches altitude 10° 06:41:17 10° 356° (N) 2,471 4.4 -8.9°
Maximum altitude 06:44:21 15° 29° (NNE) 2,161 4.4 -8.4°
Drops below altitude 10° 06:47:24 10° 62° (ENE) 2,470 5.2 -8.0°
Sets 06:51:05 0° 86° (E) 3,403 6.6 -7.4°
